SKYSAT-C8 (42990 NORAD) Tracking and Keplerian Element Data

This shows tracking and keplerian element data for the satellite.

Feedback or suggestion? Click here.




ElementValue
Catalog42990
NameSKYSAT-C8
Epoch Orbit21664
Epoch Day261.9019262
Epoch Year2021
RAAN17.6797
Inclination97.2731
Eccentricity0.0001428
Argument of Perigee126.1429
Mean Anonmoly233.995
Mean Motion15.40406766
Decay Rate2.942E-05
L11 42990U 17068D 21261.90192620 .00002942 00000-0 74845-4 0 9996
L22 42990 97.2731 17.6797 0001428 126.1429 233.9950 15.40406766216641

Live tracking and technical data element details for SKYSAT-C8 (NORAD 42990). SKYSAT-C8 can be tracked NOW for your location showing map with azimuth and elevation plus other details from your city location.

Track the satellite on the map from your city or location and see movement details for azimuth, elevation, latitude, longitude, range, height, and movement on the map or in text.







IsCatalogInMostPopularTable: catalog: 42990, numindb: 606
Update: records affected: 1



GetName: 42990 SKYSAT-C8

Hit Count: updated at: Sun, 26 Sep 2021 00:17:02 GMT